Regional Weather Roundup
Issued by NWS

Home | Current Version | Previous Version | Graphics & Text | Print | Product List | Glossary On
Versions: 1 2 3 4 5 6 7 8 9 10 11 12 13 14 15 16 17 18 19 20 21 22 23 24 25 26 27 28 29 30 31 32 33 34 35 36 37 38 39 40 41 42 43 44 45 46 47 48 49 50
680
ASUS43 KIND 181959
RWRIN

WEATHER ROUNDUP FOR INDIANA
NATIONAL WEATHER SERVICE INDIANAPOLIS IN
300 PM EST WED JAN 18 2017

NOTE: "FAIR" INDICATES FEW OR NO CLOUDS BELOW 12,000 FEET WITH NO
SIGNIFICANT WEATHER AND/OR OBSTRUCTIONS TO VISIBILITY.

* - STATION DOES NOT REPORT WEATHER SUCH AS PRECIPITATION OR FOG.

+ - STATION NOT QUALITY CONTROLLED BY THE NATIONAL WEATHER SERVICE.
    USE DATA WITH CAUTION...ESPECIALLY DEWPOINT AND RELATIVE
    HUMIDITY OBSERVATIONS.

INZ001>003-010>013-019-020-182100-
NORTHWEST INDIANA

CITY           SKY/WX    TMP DP  RH WIND       PRES   REMARKS
GARY /AIRPORT/ CLOUDY    37  32  81 SW14      30.09F
KNOX *+        CLOUDY    34  27  75 SW9       30.10F WCI  26
MONTICELLO +   CLOUDY    35  34  94 SW9       30.11F WCI  28

$$

LMZ046-743>745-182100-
SOUTHERN LAKE MICHIGAN

STATION/POSITION TIME  TEMP    WIND        PRES    WAVE
                       AIR SEA DIR/SP/G            HT
                 (UTC) (F)     (DEG/KT/KT) (MB)    (FT)
BURNS HARBOR     1940   35     220/ 17/ 21 1019.3F

$$

INZ004-005-014>016-021>024-182100-
NORTH CENTRAL INDIANA

CITY           SKY/WX    TMP DP  RH WIND       PRES   REMARKS
GOSHEN         CLOUDY    35  32  88 SW13      30.09S WCI  26
PERU/GRISSOM   CLOUDY    36  36 100 SW12      30.10F
SOUTH BEND     FOG       34  34 100 SW13      30.08F VSB 1/2 WCI  25

$$

INZ006>009-017-018-025>027-182100-
NORTHEAST INDIANA

CITY           SKY/WX    TMP DP  RH WIND       PRES   REMARKS
ANGOLA *+      CLOUDY    36  34  93 SW12      30.07S
FORT WAYNE     CLOUDY    37  33  85 SW16      30.11F
KENDALLVILLE + CLOUDY    35  35  99 SW10      30.08S FOG     WCI  27

$$

INZ028-029-035-036-043>045-051>053-182100-
WEST CENTRAL INDIANA

CITY           SKY/WX    TMP DP  RH WIND       PRES   REMARKS
CRAWFORDSVL +  CLOUDY    35  35 100 SW7       30.13F WCI  29
LAFAYETTE      CLOUDY    37  35  92 SW6       30.12F
TERRE HAUTE    CLOUDY    40  34  79 W5        30.16F

$$

INZ030>032-037>040-046>048-054>057-064-065-182100-
CENTRAL INDIANA

CITY           SKY/WX    TMP DP  RH WIND       PRES   REMARKS
ANDERSON       CLOUDY    37  36  93 SW6       30.14F FOG
COLUMBUS       CLOUDY    39  39 100 W5        30.16F
INDIANAPOLIS   CLOUDY    38  35  89 SW9       30.14F
-EAGLE CREEK   CLOUDY    38  34  85 W5        30.13F
KOKOMO +       CLOUDY    36  34  92 SW13      30.12F
MT COMFORT *+  CLOUDY    37  36  93 W9        30.14F
SHELBYVILLE    CLOUDY    40  36  86 W8        30.14F

$$

INZ033-034-041-042-049-050-058-059-182100-
EAST CENTRAL INDIANA

CITY           SKY/WX    TMP DP  RH WIND       PRES   REMARKS
MUNCIE         CLOUDY    38  34  85 W9        30.12F

$$

INZ060-061-067>069-081>083-085>088-182100-
SOUTHWEST INDIANA

CITY           SKY/WX    TMP DP  RH WIND       PRES   REMARKS
EVANSVILLE     CLOUDY    45  35  68 S8        30.20S
HUNTINGBURG *+ CLOUDY    41  36  82 S5        30.19R

$$

INZ062-063-066-070>080-084-089>092-182100-
SOUTH CENTRAL AND SOUTHEAST INDIANA

CITY           SKY/WX    TMP DP  RH WIND       PRES   REMARKS
BLOOMINGTON    CLOUDY    39  35  86 S5        30.15F
MADISON *+     CLOUDY    41  34  75 CALM      30.17F
SEYMOUR +      CLOUDY    43  37  81 NW3       30.16F

$$





USA.gov is the U.S. government's official web portal to all federal, state and local government web resources and services.